Home   Weather   Mendoza   Past weeks

Flag for Argentina Past Weather in Mendoza, Mendoza, Argentina — Yesterday and Last 2 Weeks

Now
50 °F

Clear.


Feels Like: 50 °F
Forecast: 44 / 80 °F
Wind: No wind

Location: Mendoza Aerodrome

Current Time: Sep 26, 2016 at 7:41:55 AM

Latest Report: Sep 26, 2016 at 7:00 AM


Visibility: 10 mi

Pressure: 29.98 "Hg (27.33 "Hg at 767m altitude)

Humidity: 67%

Dew Point: 39 °F

Location of MendozaLocation

Past Weather in Mendoza — Graph

°F

Mendoza Temperature Yesterday

Maximum temperature yesterday: 77 °F (at 4:00 PM)
Minimum temperature yesterday: 45 °F (at 6:00 AM)
Average temperature yesterday: 60 °F

High & Low Weather Summary for the Past Weeks

 TemperatureHumidityPressure
High84 °F (Sep 21, 3:00 PM)76% (Sep 12, 7:00 AM)30.45 "Hg (Sep 12, 7:00 AM)
Low39 °F (Sep 24, 8:00 AM)11% (Sep 22, 7:00 PM)29.71 "Hg (Sep 12, 4:00 PM)
Average63 °F37%30.05 "Hg
* Reported Sep 11 6:00 AM — Sep 26 6:00 AM, Mendoza, Weather by CustomWeather, © 2016

Note: Actual official high and low records may vary slightly from our data, if they occured in-between our weather recording intervals... More about our weather records

Advertising

Mendoza Weather History for the Previous 24 Hours

Scroll right to see more
 ConditionsComfort  
Time TempWeatherWind HumidityBarometerVisibility
6:00 AM
Mon, Sep 26
52 °FClear.No wind67%29.95 "Hg10 mi
5:00 AM54 °FClear.No wind47%29.92 "Hg10 mi
4:00 AM54 °FClear.No wind51%29.92 "Hg10 mi
3:00 AM55 °FClear.No wind47%29.92 "Hg10 mi
2:00 AM55 °FClear.3 mph44%29.95 "Hg10 mi
1:00 AM57 °FClear.No wind51%29.95 "Hg10 mi
12:00 AM59 °FClear.No wind48%29.95 "Hg10 mi
11:00 PM
Sun, Sep 25
63 °FClear.No wind32%29.92 "Hg10 mi
10:00 PM63 °FClear.No wind37%29.92 "Hg10 mi
9:00 PM68 °FClear.3 mph30%29.89 "Hg10 mi
8:00 PM72 °FClear.No wind27%29.86 "Hg10 mi
7:00 PM75 °FSunny.2 mph18%29.86 "Hg10 mi
6:00 PM77 °FSunny.8 mph15%29.86 "Hg10 mi
5:00 PM77 °FSunny.10 mph14%29.86 "Hg10 mi
4:00 PM77 °FPleasantly warm.8 mph14%29.89 "HgN/A
3:00 PM75 °FSunny.7 mph18%29.92 "Hg10 mi
2:00 PM72 °FSunny.8 mph23%29.98 "Hg10 mi
1:00 PM68 °FSunny.6 mph28%30.01 "Hg10 mi
12:00 PM64 °FSunny.3 mph30%30.04 "Hg10 mi
11:00 AM61 °FSunny.3 mph34%30.07 "Hg10 mi
10:00 AM55 °FSunny.3 mph38%30.07 "Hg10 mi
9:00 AM52 °FSunny.3 mph41%30.07 "Hg10 mi
8:00 AM45 °FSunny.No wind61%30.07 "Hg10 mi
7:00 AM45 °FClear.No wind57%30.07 "Hg10 mi
Weather by CustomWeather, © 2016

See weather overviewHow to use our weather pages